| time (UTC) | temp C | wind direction | speed KPH | gust KPH | rain 1hr cm | rain 24hr cm | rain mn cm | humidity % | barometer mb |
| 20260504050006 | 3 | 85 | 1.6 | 16.1 | 0.05 | 1.55 | 0.05 | 95 | 974.4 |
| 20260504044508 | 3 | 332 | 4.8 | 25.7 | 0.05 | 1.55 | 0.05 | 95 | 975.2 |
| 20260504043100 | 3 | 25 | 4.8 | 22.5 | 0.03 | 1.55 | 0.05 | 94 | 975.9 |
| 20260504041557 | 4 | 217 | 4.8 | 30.6 | 0.05 | 1.55 | 0.05 | 94 | 976.4 |
| 20260504040053 | 4 | 156 | 11.3 | 30.6 | 0.03 | 1.52 | 0.03 | 95 | 977.4 |
| 20260504034554 | 4 | 206 | 11.3 | 25.7 | 0.03 | 1.52 | 0.03 | 95 | 978.1 |
| 20260504033054 | 4 | 70 | 1.6 | 9.7 | 0.03 | 1.52 | 0.03 | 95 | 979.1 |
| 20260504031544 | 5 | 52 | 3.2 | 19.3 | 0.00 | 1.50 | 0.00 | 95 | 979.8 |
| 20260504030039 | 5 | 160 | 9.7 | 27.4 | 0.03 | 1.50 | 1.50 | 96 | 980.4 |
| 20260504024540 | 5 | 128 | 16.1 | 33.8 | 0.03 | 1.50 | 1.50 | 98 | 980.8 |
| 20260504023035 | 4 | 197 | 17.7 | 27.4 | 0.05 | 1.50 | 1.50 | 98 | 981.3 |
| 20260504021536 | 3 | 357 | 8.0 | 20.9 | 0.05 | 1.50 | 1.50 | 98 | 982.4 |
| 20260504020031 | 3 | 40 | 12.9 | 27.4 | 0.08 | 1.45 | 1.45 | 97 | 982.7 |
| 20260504014525 | 3 | 48 | 22.5 | 38.6 | 0.13 | 1.45 | 1.45 | 97 | 983.7 |
| 20260504013033 | 3 | 2 | 22.5 | 41.8 | 0.15 | 1.42 | 1.42 | 97 | 984.6 |
| 20260504011520 | 3 | 21 | 29.0 | 48.3 | 0.18 | 1.42 | 1.42 | 97 | 985.5 |
| 20260504010016 | 2 | 44 | 30.6 | 45.1 | 0.20 | 1.40 | 1.40 | 97 | 986.5 |
| 20260504004515 | 2 | 56 | 32.2 | 46.7 | 0.23 | 1.37 | 1.37 | 97 | 987.5 |
| 20260504003011 | 2 | 62 | 30.6 | 46.7 | 0.33 | 1.32 | 1.32 | 97 | 988.1 |
| 20260504001508 | 2 | 23 | 27.4 | 49.9 | 0.36 | 1.27 | 1.27 | 97 | 989.2 |
| 20260504000007 | 2 | 40 | 37.0 | 54.7 | 0.38 | 1.19 | 1.19 | 97 | 989.3 |
| 20260503234505 | 2 | 20 | 38.6 | 59.5 | 0.38 | 1.14 | 1.14 | 97 | 989.8 |
| 20260503233001 | 2 | 357 | 27.4 | 41.8 | 0.28 | 0.99 | 0.99 | 97 | 991.3 |
| 20260503231558 | 2 | 357 | 29.0 | 45.1 | 0.25 | 0.89 | 0.89 | 97 | 992.2 |
| 20260503230059 | 2 | 2 | 25.7 | 41.8 | 0.23 | 0.81 | 0.81 | 97 | 993.0 |
| 20260503224553 | 2 | 46 | 22.5 | 37.0 | 0.23 | 0.76 | 0.76 | 97 | 994.1 |
| 20260503223051 | 2 | 357 | 27.4 | 40.2 | 0.25 | 0.71 | 0.71 | 97 | 994.5 |
| 20260503221549 | 2 | 46 | 20.9 | 35.4 | 0.33 | 0.64 | 0.64 | 97 | 995.6 |
| 20260503220104 | 2 | 33 | 22.5 | 32.2 | 0.38 | 0.61 | 0.61 | 97 | 995.9 |
| 20260503214547 | 2 | 46 | 19.3 | 35.4 | 0.30 | 0.51 | 0.51 | 97 | 996.4 |
| 20260503213049 | 2 | 39 | 24.1 | 45.1 | 0.23 | 0.43 | 0.43 | 97 | 996.5 |
| 20260503211559 | 1 | 2 | 27.4 | 38.6 | 0.15 | 0.33 | 0.33 | 97 | 996.7 |
| 20260503210039 | 1 | 23 | 24.1 | 37.0 | 0.05 | 0.23 | 0.23 | 97 | 998.1 |
| 20260503204539 | 1 | 64 | 25.7 | 35.4 | 0.05 | 0.20 | 0.20 | 96 | 998.5 |
| 20260503203037 | 1 | 24 | 22.5 | 41.8 | 0.05 | 0.20 | 0.20 | 96 | 999.6 |
| 20260503201535 | 1 | 48 | 22.5 | 41.8 | 0.05 | 0.18 | 0.18 | 96 | 999.6 |
| 20260503200036 | 1 | 55 | 30.6 | 43.5 | 0.10 | 0.18 | 0.18 | 96 | 1000.1 |
| 20260503194531 | 2 | 357 | 27.4 | 40.2 | 0.15 | 0.15 | 0.15 | 96 | 1001.0 |
| 20260503193027 | 2 | 357 | 24.1 | 33.8 | 0.15 | 0.15 | 0.15 | 96 | 1002.0 |
| 20260503191527 | 2 | 18 | 33.8 | 43.5 | 0.13 | 0.13 | 0.13 | 96 | 1002.5 |
| 20260503190023 | 2 | 2 | 27.4 | 37.0 | 0.05 | 0.05 | 0.05 | 95 | 1003.8 |
| 20260503184525 | 2 | 20 | 29.0 | 43.5 | 0.03 | 0.03 | 0.03 | 95 | 1004.7 |
| 20260503183027 | 3 | 2 | 30.6 | 37.0 | 0.00 | 0.00 | 0.00 | 92 | 1005.5 |
| 20260503181526 | 5 | 2 | 19.3 | 25.7 | 0.00 | 0.00 | 0.00 | 86 | 1005.9 |
| 20260503180013 | 5 | 54 | 12.9 | 17.7 | 0.00 | 0.00 | 0.00 | 83 | 1006.6 |
| 20260503174510 | 6 | 357 | 8.0 | 17.7 | 0.00 | 0.00 | 0.00 | 83 | 1007.0 |
| 20260503173112 | 5 | 50 | 8.0 | 17.7 | 0.00 | 0.00 | 0.00 | 86 | 1007.7 |
| 20260503171504 | 4 | 17 | 14.5 | 22.5 | 0.00 | 0.00 | 0.00 | 91 | 1007.5 |
| 20260503100113 | 1 | 199 | 9.7 | 14.5 | 0.00 | 0.03 | 0.00 | 98 | 1014.7 |
| 20260503081540 | 1 | 193 | 6.4 | 11.3 | 0.00 | 0.03 | 0.00 | 97 | 1015.4 |
| 20260503071536 | 1 | 176 | 9.7 | 14.5 | 0.00 | 0.05 | 0.00 | 98 | 1015.5 |